Regional Weather Roundup
Issued by NWS

Home | Current Version | Previous Version | Text Only | Print | Product List | Glossary On
Versions: 1 2 3 4 5 6 7 8 9 10 11 12 13 14 15 16 17 18 19 20 21 22 23 24 25 26 27 28 29 30 31 32 33 34 35 36 37 38 39 40 41 42 43 44 45 46 47 48 49 50
000
ASUS43 KLSX 270207
RWRMO

WEATHER SUMMARY FOR MISSOURI
NATIONAL WEATHER SERVICE SPRINGFIELD MO
900 PM CDT TUE MAY 26 2015

NOTE: "FAIR" INDICATES FEW OR NO CLOUDS BELOW 12,000 FEET WITH NO
       SIGNIFICANT WEATHER AND/OR OBSTRUCTIONS TO VISIBILITY.
       CURRENT SKY AND/OR WEATHER CONDITIONS ARE NOT AVAILABLE FOR
       CHILLICOTHE AND FARMINGTON.

MOZ001>031-035>038-043-044-053-054-270300-
...NORTHERN AND WESTERN MISSOURI...

CITY           SKY/WX    TMP DP  RH WIND       PRES   REMARKS
KANSAS CTY INT PTCLDY    67  60  78 SW6       29.91R
KANSAS C DTWN  PTCLDY    74  58  57 W6        29.89R
LEE`S SUMMIT   MOCLDY    73  57  57 W5        29.91R
ST JOSEPH      CLEAR     69  58  67 W6        29.89R
CHILLICOTHE      N/A     70  62  76 CALM      29.89R
KIRKSVILLE     CLOUDY    67  62  84 W10       29.88R

$$
MOZ066>068-077>081-088>096-101>105-270300-
...SOUTHWEST MISSOURI...

CITY           SKY/WX    TMP DP  RH WIND       PRES   REMARKS
SPRINGFIELD    MOCLDY    70  62  76 S10       29.96S
JOPLIN         CLOUDY    72  63  73 W7        29.98R

$$
MOZ032>034-039>042-045>050-055>058-069>072-270300-
...CENTRAL MISSOURI...

CITY           SKY/WX    TMP DP  RH WIND       PRES   REMARKS
COLUMBIA       CLEAR     68  61  78 S8        29.92R
JEFFERSON CITY CLEAR     74  60  61 S7        29.91R
ROLLA          CLEAR     67  60  78 S8        29.94S
SEDALIA        PTCLDY    72  62  71 S10       29.93R
WHITEMAN AFB   MOCLDY    71  63  75 SW9       29.91R
WARRENSBURG    HVY RAIN  68  63  83 S14       29.92R
OSAGE BEACH    CLEAR     70  61  73 SW5       29.94R

$$
MOZ051-052-059>065-270300-
...EAST CENTRAL MISSOURI...

CITY           SKY/WX    TMP DP  RH WIND       PRES   REMARKS
ST LOUIS INTL  PTCLDY    76  59  55 S8        29.95R
SPIRIT OF STL  CLEAR    N/A N/A N/A S6        29.93R
ST CHARLES     CLEAR     72  61  68 S9        29.92R

$$
MOZ072>076-082>087-097>100-106>115-270300-
...SOUTH CENTRAL AND SOUTHEAST MISSOURI...

CITY           SKY/WX    TMP DP  RH WIND       PRES   REMARKS
CAPE GIRARDEAU CLEAR     70  65  84 S7        30.01R
FARMINGTON     CLEAR     68  61  77 S8        30.04R
POPLAR BLUFF   CLEAR     71  64  78 S8        30.01R
WEST PLAINS    CLEAR     69  61  75 S5        30.03R

$$



USA.gov is the U.S. government's official web portal to all federal, state and local government web resources and services.